Location: Newark
(42.7133°N, 87.7910°W)
Time: 22:34:34
(UTC+00:00)

A-11 Canister half - Pass Details

Date: 26 September 2019
Orbit: 1527 x 1682 km, 47.3° (Epoch: 20 October)

Event Time Altitude Azimuth Distance (km) Brightness Sun altitude
Exits shadow 10:13:08 22° 268° (W) 2,891 9.8 -17.1°
Maximum altitude 10:19:50 72° 349° (N) 1,640 9.1 -15.9°
Drops below altitude 10° 10:29:32 10° 74° (ENE) 3,825 12.5 -14.2°
Sets 10:32:43 0° 76° (ENE) 4,832 13.7 -13.6°
